Location: Byszew
(52.1813°N, 19.2693°E)
Time: 11:18:32
(UTC+00:00)

X-37B - Visible Passes

Search period start: 22 January 2022 00:00
Search period end: 01 February 2022 00:00
Orbit: 334 x 337 km, 45.0° (Epoch: 11 January)

Date Brightness Start Highest point End Pass type
(mag) Time Alt. Az. Time Alt. Az. Time Alt. Az.
29 Jan 3.0 16:46:50 10° SSE 16:46:57 10° SSE 16:47:04 10° SSE visible
30 Jan 2.6 17:05:16 10° SSW 17:07:02 15° SSE 17:07:32 15° SSE visible
31 Jan 2.4 17:25:04 10° SW 17:27:08 19° S 17:27:08 19° S visible
